0002P 2010 08 6.5102 0.336152 0.848265 186.5242 334.5718 11.7843 20100104 11.5 6.0 2P/Encke MPC 59600 0007P 2008 09 26.5521 1.253262 0.634716 172.3079 93.4195 22.3092 20100104 10.0 6.0 7P/Pons-Winnecke MPC 54170 0008P 2008 01 26.7800 1.028098 0.819471 207.5121 270.3486 54.9708 20100104 8.0 8.0 8P/Tuttle MPC 61707 0009P 2011 01 12.3464 1.509915 0.516732 178.9252 68.9190 10.5226 20100104 5.5 10.0 9P/Tempel MPC 62880 0010P 2010 07 4.9010 1.422778 0.536251 195.6532 117.8262 12.0225 20100104 5.0 10.0 10P/Tempel MPC 59600 0014P 2009 02 27.3705 2.724434 0.357832 159.0240 202.1176 27.9437 20100104 5.5 12.0 14P/Wolf MPC 56802 0017P 2007 05 5.0146 2.053357 0.432872 24.3499 326.8536 19.1145 20100104 10.0 6.0 17P/Holmes MPC 51822 0022P 2009 05 25.3703 1.577199 0.544352 162.7883 120.8888 4.7235 20100104 3.0 10.4 22P/Kopff MPC 66205 0024P 2009 08 9.6196 1.213888 0.703580 57.9951 79.7161 11.7293 20100104 6.5 14.0 24P/Schaumasse MPC 56804 0029P 2004 07 9.1481 5.718738 0.045138 48.7702 312.6345 9.3930 20100104 4.0 4.0 29P/Schwassmann-Wachmann MPC 42666 0030P 2010 04 19.5581 1.884062 0.500939 13.2123 119.7544 8.1224 20100104 9.5 6.0 30P/Reinmuth MPC 59599 0031P 2010 09 29.8686 3.424174 0.192420 17.9936 114.1900 4.5473 20100104 5.0 8.0 31P/Schwassmann-Wachmann MPC 59600 0036P 2011 12 31.3155 3.087407 0.258728 201.8816 182.3954 9.9358 20100104 8.5 6.0 36P/Whipple MPC 62883 0043P 2010 07 1.7165 1.357702 0.594627 191.4419 249.9078 15.9650 20100104 8.0 6.0 43P/Wolf-Harrington MPC 59600 0044P 2008 02 18.5052 2.107590 0.428481 58.1605 286.6006 5.9030 20100104 8.3 6.0 44P/Reinmuth MPC 60465 0047P 2009 02 1.1041 2.799463 0.319016 357.7233 356.9821 13.0530 20100104 1.0 11.2 47P/Ashbrook-Jackson MPC 56802 0049P 2011 10 19.0545 1.418772 0.601105 332.9242 118.9407 19.0872 20100104 11.3 4.4 49P/Arend-Rigaux MPC 62882 0054P 2009 11 28.4918 2.171998 0.426595 1.9061 358.8532 6.0685 20100104 10.0 6.0 54P/de Vico-Swift-NEAT MPC 66922 0059P 2009 03 7.6452 2.355394 0.475342 127.5261 313.0354 9.3405 20100104 7.0 6.0 59P/Kearns-Kwee MPC 64498 0061P 2008 09 6.2314 2.108221 0.426850 221.6727 163.1087 6.0095 20100104 6.0 10.0 61P/Shajn-Schaldach MPC 63377 0064P 2009 06 14.3689 1.377063 0.689664 96.3147 300.7432 8.9510 20100104 8.5 12.0 64P/Swift-Gehrels MPC 66706 0065P 2010 03 2.1224 2.440370 0.319389 196.6319 68.3568 10.3865 20100104 5.0 6.0 65P/Gunn MPC 59598 0067P 2009 02 28.3819 1.246286 0.640313 12.7019 50.1884 7.0413 20100104 11.0 4.0 67P/Churyumov-Gerasimenko MPC 56802 0068P 2009 01 20.9725 1.759371 0.640416 153.9915 175.3268 11.1446 20100104 10.0 4.0 68P/Klemola MPC 56802 0074P 2009 07 29.9266 3.557569 0.147450 87.1876 77.0919 6.6476 20100104 5.0 6.0 74P/Smirnova-Chernykh MPC 56804 0077P 2009 07 7.8598 2.310389 0.357955 196.6995 14.9174 24.3990 20100104 7.0 8.0 77P/Longmore MPC 56804 0081P 2010 02 22.7042 1.598052 0.537400 41.7948 136.0974 3.2374 20100104 7.0 6.0 81P/Wild MPC 67148 0082P 2010 01 12.0813 3.633375 0.122228 226.2674 239.5100 1.1261 20100104 5.0 8.0 82P/Gehrels MPC 59598 0085P 2008 12 16.4099 1.147325 0.775467 53.5895 343.4491 4.2170 20100104 6.5 8.0 85P/Boethin MPC 54171 0088P 2009 10 12.4630 1.363448 0.562066 235.9600 56.7529 4.3817 20100104 11.0 6.0 88P/Howell MPC 66205 0089P 2009 08 17.1125 2.279762 0.399834 249.3256 42.3614 12.0321 20100104 11.5 6.0 89P/Russell MPC 56804 0094P 2010 03 29.7678 2.240250 0.363089 92.8489 70.9180 6.1823 20100104 9.0 6.0 94P/Russell MPC 59599 0097P 2011 08 22.5545 2.588399 0.459569 228.6788 185.2536 17.8773 20100104 5.5 6.0 97P/Metcalf-Brewington MPC 62881 0099P 2007 01 28.6835 4.739022 0.229293 174.5096 28.2166 4.3323 20100104 4.5 6.0 99P/Kowal MPC 51821 0100P 2009 12 6.1484 1.982408 0.418600 181.7084 37.8449 25.6545 20100104 9.0 8.0 100P/Hartley MPC 56805 0104P 2010 05 4.6237 1.179682 0.638286 200.5426 235.5202 10.2678 20100104 12.5 4.0 104P/Kowal MPC 59599 0110P 2008 02 3.0770 2.486213 0.312608 167.6596 287.7292 11.6797 20100104 1.0 12.0 110P/Hartley MPC 54167 0116P 2009 07 18.8385 2.174943 0.374438 173.5826 21.0339 3.6130 20100104 2.5 10.0 116P/Wild MPC 62583 0117P 2005 12 20.8059 3.044608 0.255093 223.0283 58.9311 8.7015 20100104 2.5 8.0 117P/Helin-Roman-Alu MPC 45658 0118P 2010 01 2.3109 1.983924 0.427348 302.1445 151.8072 8.5094 20100104 12.0 4.0 118P/Shoemaker-Levy MPC 66922 0119P 2014 04 3.5061 3.037362 0.290839 181.0851 244.0741 5.1920 20100104 3.5 8.0 119P/Parker-Hartley MPC 52907 0123P 2011 07 4.5452 2.130191 0.447866 102.7883 46.6017 15.3544 20100104 4.0 10.0 123P/West-Hartley MPC 62881 0124P 2008 04 27.6508 1.471475 0.542413 181.7612 1.1203 31.4879 20100104 13.5 2.8 124P/Mrkos MPC 54168 0126P 2010 02 22.6752 1.713392 0.696607 356.7343 357.7611 45.8294 20100104 6.0 8.0 126P/IRAS MPC 66205 0127P 2009 10 21.3714 2.195719 0.362309 6.5425 13.6846 14.3218 20100104 11.0 6.0 127P/Holt-Olmstead MPC 67414 0128P 2007 06 13.4842 3.064743 0.320546 210.3538 214.3648 4.3585 20100104 8.5 4.0 128P/Shoemaker-Holt MPC 51822 0129P 2013 09 17.4010 2.858002 0.259455 291.6404 217.8195 1.7746 20100104 11.0 4.0 129P/Shoemaker-Levy MPC 50140 0136P 2007 10 22.9725 2.961880 0.293540 225.0169 137.5519 9.4274 20100104 11.0 4.0 136P/Mueller MPC 60282 0137P 2009 05 13.6033 1.915448 0.574556 140.8308 233.1192 4.8534 20100104 11.0 4.0 137P/Shoemaker-Levy MPC 56803 0139P 2008 04 19.7474 3.402684 0.247264 165.5955 242.4255 2.3287 20100104 9.5 4.0 139P/Vaisala-Oterma MPC 60666 0142P 2010 05 30.7762 2.487715 0.499820 175.7984 176.5253 12.3029 20100104 8.5 6.0 142P/Ge-Wang MPC 59599 0143P 2009 06 12.1976 2.538264 0.409605 320.7641 245.3670 4.6902 20100104 13.5 2.0 143P/Kowal-Mrkos MPC 56803 0144P 2009 01 26.8402 1.438559 0.627807 216.0788 245.5492 4.1098 20100104 8.5 8.0 144P/Kushida MPC 64498 0145P 2009 03 26.6599 1.891468 0.542322 10.1635 26.8972 11.2990 20100104 13.5 4.0 145P/Shoemaker-Levy MPC 56803 0149P 2010 02 19.2176 2.650924 0.388534 43.7697 145.2659 29.7350 20100104 8.0 8.0 149P/Mueller MPC 59598 0150P 2008 11 25.9495 1.768067 0.545578 245.6740 272.4280 18.4994 20100104 13.5 4.0 150P/LONEOS MPC 54170 0152P 2012 07 9.4754 3.112708 0.308032 163.9090 91.9528 9.8689 20100104 11.5 4.0 152P/Helin-Lawrence MPC 65938 0157P 2010 02 20.5347 1.360164 0.601074 148.7460 300.1078 7.2775 20100104 10.0 4.0 157P/Tritton MPC 66922 0158P 2012 09 15.4832 4.580351 0.029450 231.5503 137.3089 7.9085 20100104 9.0 4.0 158P/Kowal-LINEAR MPC 65939 0162P 2010 03 8.4217 1.233063 0.596119 356.3052 31.2412 27.8159 20100104 12.0 4.0 162P/Siding Spring MPC 59599 0164P 2011 06 2.5372 1.673924 0.541333 325.9236 88.3628 16.2666 20100104 11.0 4.0 164P/Christensen MPC 62880 0166P 2002 05 15.8309 8.545933 0.382443 321.5725 64.4283 15.3682 20100104 5.5 4.0 166P/NEAT MPC 54366 0167P 2001 05 17.8567 11.821981 0.273604 344.7716 295.7768 19.0897 20100104 9.5 2.0 167P/CINEOS MPC 54367 0169P 2009 11 30.3045 0.607747 0.766797 217.9614 176.1885 11.2999 20100104 16.0 2.0 169P/NEAT MPC 56805 0172P 2008 10 13.7322 2.241936 0.362978 179.3842 39.9408 11.5188 20100104 13.0 4.0 172P/Yeung MPC 54825 0173P 2008 05 16.9608 4.212603 0.260768 29.6554 100.5442 16.4937 20100104 7.5 4.0 173P/Mueller MPC 54987 0174P 2015 04 18.7377 5.826575 0.458018 162.6014 173.3902 4.3410 20100104 9.5 2.0 174P/Echeclus CCO 17 0176P 2011 07 2.6531 2.575169 0.193455 35.9710 346.5055 0.2378 20100104 15.0 2.0 176P/LINEAR CCO 17 0179P 2007 12 3.2500 4.086275 0.308873 295.4755 115.8466 19.8716 20100104 2.5 8.0 179P/Jedicke MPC 66205 0180P 2008 05 27.0512 2.471904 0.357238 95.0969 84.7409 16.9036 20100104 11.0 4.0 180P/NEAT MPC 62583 0183P 2008 05 7.2975 3.893296 0.134922 161.4384 5.8488 18.7369 20100104 12.5 2.0 183P/Korlevic-Juric MPC 58540 0186P 2008 04 22.9446 4.279584 0.125987 282.6454 327.7730 28.8684 20100104 7.5 4.0 186P/Garradd MPC 59045 0187P 2008 10 10.9078 3.695969 0.172528 132.6223 111.9998 13.7197 20100104 9.0 4.0 187P/LINEAR MPC 62583 0195P 2009 01 20.6604 4.438228 0.314778 249.5837 243.2270 36.3621 20100104 8.5 4.0 195P/Hill MPC 61438 0197P 2008 05 18.8810 1.060968 0.629702 188.7857 66.3896 25.5499 20100104 16.5 2.0 197P/LINEAR MPC 62272 0199P 2009 04 9.5980 2.934523 0.508860 191.9153 92.8785 24.7359 20100104 10.0 4.0 199P/Shoemaker MPC 66205 0200P 2008 08 25.6681 3.272834 0.333581 133.8235 234.8143 12.1181 20100104 9.0 4.0 200P/Larsen MPC 63139 0202P 2009 02 6.9677 2.526771 0.331034 255.5499 194.5665 2.1852 20100104 13.5 4.0 202P/Scotti MPC 64116 0203P 2010 02 8.1941 3.182125 0.315069 154.5441 290.5643 2.9759 20100104 14.5 2.0 203P/Korlevic MPC 63822 0209P 2009 04 16.0177 0.913341 0.689136 149.7739 66.3994 19.1490 20100104 17.0 2.0 209P/LINEAR MPC 64498 0211P 2009 05 7.6857 2.361882 0.337661 4.3694 117.2929 18.8712 20100104 12.5 4.0 211P/Hill MPC 64768 0213P 2011 06 15.9957 2.123421 0.379743 3.2302 312.6870 10.2397 20100104 10.5 4.0 213P/Van Ness MPC 65058 0214P 2009 01 5.6366 1.844431 0.488523 190.3049 348.2567 15.2137 20100104 13.0 4.0 214P/LINEAR MPC 65058 0215P 2010 06 7.8888 3.213460 0.200867 222.4199 75.4441 12.7911 20100104 11.0 4.0 215P/NEAT MPC 67148 0217P 2009 09 8.9694 1.224011 0.689552 246.7486 125.6211 12.8815 20100104 12.0 4.0 217P/LINEAR MPC 65648 0218P 2009 06 22.3384 1.701555 0.490467 10.6412 226.7302 18.1506 20100104 16.0 4.0 218P/LINEAR MPC 65936 0219P 2010 03 5.8344 2.364293 0.353187 107.7758 231.0714 11.5201 20100104 11.0 4.0 219P/LINEAR MPC 65936 0220P 2009 12 15.4320 1.548625 0.502681 180.7575 150.1181 8.1327 20100104 15.0 4.0 220P/McNaught MPC 65936 0221P 2009 01 24.7553 1.782664 0.487396 39.6559 229.9911 11.4217 20100104 14.5 4.0 221P/LINEAR MPC 66206 0222P 2009 09 1.0990 0.780228 0.727031 345.4383 7.1181 5.1478 20100104 20.0 4.0 222P/LINEAR MPC 66706 0223P 2010 08 14.7247 2.419237 0.417609 37.9245 346.8278 27.0542 20100104 12.0 4.0 223P/Skiff MPC 66922 0224P 2010 01 31.8299 1.989595 0.416379 16.0912 40.5285 13.4361 20100104 15.5 4.0 224P/LINEAR-NEAT MPC 66922 0225P 2009 08 25.5346 1.314777 0.639243 3.8322 14.2241 21.3964 20100104 18.0 4.0 225P/LINEAR MPC 66923 0226P 2009 05 11.2515 1.769207 0.529986 340.9630 54.0678 44.0212 20100104 12.5 4.0 226P/Pigott-LINEAR-Kowalski MPC 67148 0227P 2010 09 3.7223 1.794826 0.499869 90.1393 49.8858 6.5248 20100104 16.5 2.0 227P/Catalina-LINEAR MPC 67148 0228P 2011 08 24.6820 3.430204 0.176412 114.9119 31.0709 7.9160 20100104 14.5 2.0 228P/LINEAR MPC 67414 CJ95O010 1997 03 31.3492 0.908752 0.994949 130.5577 282.7984 89.2741 20100104 -2.0 4.0 C/1995 O1 (Hale-Bopp) MPC 61436 PJ96A010 2014 11 25.9910 4.076772 0.434895 223.9140 248.9746 6.6116 20100104 7.0 4.0 P/1996 A1 (Jedicke) MPC 31893 PJ98U030 2014 03 17.5523 2.154515 0.646988 180.9435 303.4905 19.0736 20100104 6.5 4.0 P/1998 U3 (Jager) MPC 34421 PJ98U040 2012 04 20.3650 3.851770 0.311812 251.6693 181.3875 31.6530 20100104 8.0 4.0 P/1998 U4 (Spahr) MPC 65938 PJ98V24S 2008 05 25.1717 3.422699 0.242896 244.4575 159.1698 5.0267 20100104 13.0 2.0 P/1998 VS24 (LINEAR) MPC 54169 PJ99U030 2010 07 18.4616 1.921420 0.611471 110.1262 305.9864 20.8867 20100104 13.5 4.0 P/1999 U3 (LINEAR) MPC 59600 PJ99X69B 2009 07 25.8986 1.652056 0.630821 220.3234 256.0484 11.3058 20100104 17.5 2.0 P/1999 XB69 (LINEAR) MPC 56804 PJ99XC0N 2008 11 12.3926 3.303667 0.211209 161.5865 285.4414 5.0250 20100104 13.5 2.0 P/1999 XN120 (Catalina) MPC 54170 PK00Y030 2012 01 6.1384 3.935693 0.204279 90.3891 354.3342 2.2676 20100104 9.0 4.0 P/2000 Y3 (Scotti) MPC 65937 PK01R060 2010 03 26.1195 2.178615 0.477875 308.4436 67.3328 17.3853 20100104 13.0 4.0 P/2001 R6 (LINEAR-Skiff) MPC 59599 PK02Q010 2009 03 20.9758 1.551434 0.563929 185.0407 173.9937 36.2802 20100104 13.0 4.0 P/2002 Q1 (Van Ness) MPC 56803 CK02V94Q 2006 02 6.2493 6.796477 0.963844 100.0490 34.9913 70.5828 20100104 9.5 2.0 C/2002 VQ94 (LINEAR) MPC 59874 PK02X020 2010 10 4.7462 2.127361 0.449987 351.7898 75.0111 23.5326 20100104 12.0 4.0 P/2002 X2 (NEAT) MPC 59600 PK03C07P 2011 05 17.7669 3.031948 0.246258 42.6131 133.0991 12.3290 20100104 14.5 2.0 P/2003 CP7 (LINEAR-NEAT) MPC 62880 PK03H15T 2013 03 17.9549 2.688217 0.418040 124.2324 81.4461 27.6479 20100104 14.0 2.0 P/2003 HT15 (LINEAR) MPC 49277 CK03W42T 2006 04 9.5855 5.187108 0.999085 92.3961 48.4378 31.4442 20100104 11.5 2.0 C/2003 WT42 (LINEAR) MPC 56169 PK04A010 2004 09 3.9911 5.486909 0.310081 21.8410 124.9744 10.5515 20100104 6.5 4.0 P/2004 A1 (LONEOS) MPC 60921 CK04B010 2006 02 7.5560 1.608429 1.001207 328.0408 272.8732 114.0880 20100104 10.5 2.0 C/2004 B1 (LINEAR) MPC 57131 CK04D010 2006 02 9.7505 4.972244 0.998209 75.4933 62.2350 45.5753 20100104 11.5 2.0 C/2004 D1 (NEAT) MPC 63599 PK04F030 2013 01 29.1869 2.873608 0.285649 176.4275 78.8178 15.9778 20100104 9.0 4.0 P/2004 F3 (NEAT) MPC 57793 PK04FE0Y 2004 07 31.5664 4.110941 0.166943 239.4604 327.1793 2.1266 20100104 12.5 2.0 P/2004 FY140 (LINEAR) MPC 54823 CK05EH3L 2007 03 5.0279 3.888912 1.001540 261.4873 344.8129 130.6735 20100104 11.5 2.0 C/2005 EL173 (LONEOS) MPC 61702 PK05J05Q 2009 12 28.8496 0.823087 0.694235 222.7430 95.8324 5.6954 20100104 17.5 4.0 P/2005 JQ5 (Catalina) MPC 56805 PK05L010 2013 11 23.2160 3.150444 0.208535 149.9551 138.3037 7.7358 20100104 9.5 4.0 P/2005 L1 (McNaught) MPC 54559 CK05L030 2008 01 16.9371 5.594782 1.000916 47.1949 288.7575 139.4477 20100104 4.0 4.0 C/2005 L3 (McNaught) MPC 59596 PK05R25V 2006 11 4.5807 3.600540 0.166660 191.2061 246.8783 9.8876 20100104 9.5 4.0 P/2005 RV25 (LONEOS-Christensen) MPC 55978 PK05S020 2006 06 30.7417 6.398015 0.198633 229.9520 161.2031 3.1410 20100104 7.5 4.0 P/2005 S2 (Skiff) MPC 54987 CK05S040 2007 07 19.9712 5.854285 0.999437 31.5871 318.2889 107.9589 20100104 5.0 4.0 C/2005 S4 (McNaught) MPC 60464 PK05SL6B 2007 02 10.7563 3.811449 0.463597 83.3928 1.6744 24.1182 20100104 12.0 2.0 P/2005 SB216 (LONEOS) MPC 61994 CK06E010 2007 01 7.9768 6.044566 1.003313 232.8998 95.0508 83.1815 20100104 6.0 4.0 C/2006 E1 (McNaught) MPC 65935 PK06F010 2008 02 18.7827 4.120268 0.118673 186.7775 124.7595 21.2750 20100104 8.0 4.0 P/2006 F1 (Kowalski) MPC 60465 CK06K010 2007 07 20.9332 4.426379 1.002992 296.4795 72.1128 53.8492 20100104 7.5 4.0 C/2006 K1 (McNaught) MPC 62270 CK06K040 2007 11 29.6642 3.189702 0.998691 233.6735 116.6117 111.3342 20100104 6.0 4.0 C/2006 K4 (NEAT) MPC 62270 CK06O02F 2008 09 15.7610 2.431263 1.001474 95.6209 318.5064 30.1680 20100104 5.5 4.0 C/2006 OF2 (Broughton) MPC 62270 CK06Q010 2008 07 3.7526 2.763578 0.999146 344.3644 199.5564 59.0539 20100104 5.0 4.0 C/2006 Q1 (McNaught) MPC 61994 CK06S030 2012 04 16.6943 5.135503 1.000994 140.0641 38.3385 166.0291 20100104 2.0 4.0 C/2006 S3 (LONEOS) MPC 61702 CK06S050 2007 12 9.5993 2.627162 0.972396 182.0596 281.5207 10.1323 20100104 8.0 4.0 C/2006 S5 (Hill) MPC 60465 CK06U060 2008 06 5.5682 2.497669 0.999087 276.5942 180.1828 84.8981 20100104 8.0 4.0 C/2006 U6 (Spacewatch) MPC 66204 CK06V010 2007 11 24.4362 2.669521 0.984850 253.2847 335.5236 31.3789 20100104 8.0 4.0 C/2006 V1 (Catalina) MPC 62580 CK06W030 2009 07 6.6278 3.126094 1.000373 133.5167 113.5828 127.0548 20100104 5.0 4.0 C/2006 W3 (Christensen) MPC 61436 CK07B020 2008 08 21.1139 2.977691 0.996346 206.1423 14.8208 27.4979 20100104 6.0 4.0 C/2007 B2 (Skiff) MPC 66700 CK07D010 2007 06 15.5271 8.788560 0.994758 339.9941 171.0936 41.5474 20100104 3.5 4.0 C/2007 D1 (LINEAR) MPC 61436 CK07G010 2008 11 16.3509 2.647468 1.001664 224.0007 79.0023 88.3268 20100104 5.5 4.0 C/2007 G1 (LINEAR) MPC 66464 PK07H010 2007 08 18.1019 2.282143 0.378390 202.7364 144.3643 11.8749 20100104 10.0 4.0 P/2007 H1 (McNaught) MPC 62270 CK07K030 2008 04 21.5509 2.051661 1.000430 23.5820 263.2543 16.2974 20100104 9.5 4.0 C/2007 K3 (Siding Spring) MPC 63599 CK07M010 2008 08 12.7554 7.476212 0.995920 52.7011 326.8070 139.7209 20100104 6.0 4.0 C/2007 M1 (McNaught) MPC 63376 CK07M020 2008 12 8.5383 3.541002 0.998444 220.6707 357.2910 80.9543 20100104 8.0 4.0 C/2007 M2 (Catalina) MPC 61437 CK07N030 2009 01 10.6469 1.211828 0.999998 136.8603 338.5489 178.3738 20100104 6.5 4.0 C/2007 N3 (Lulin) MPC 65054 CK07Q030 2009 10 7.2643 2.251633 1.000208 2.0880 149.4132 65.6502 20100104 4.5 4.0 C/2007 Q3 (Siding Spring) MPC 61437 PK07R010 2007 08 25.0157 4.354467 0.278517 175.3125 181.6407 7.8742 20100104 8.0 4.0 P/2007 R1 (Larson) MPC 65645 CK07S020 2008 09 13.6677 5.556688 0.556354 210.3846 296.2218 16.8563 20100104 6.5 4.0 C/2007 S2 (Lemmon) MPC 64767 CK07T050 2008 05 23.8150 4.048095 0.912302 34.3636 109.8298 45.6152 20100104 8.0 4.0 C/2007 T5 (Gibbs) MPC 65935 CK07U010 2008 08 7.1863 3.331797 1.001143 1.1232 50.1810 157.8021 20100104 9.0 4.0 C/2007 U1 (LINEAR) MPC 66921 CK07V53O 2010 04 26.4259 4.842675 0.999774 75.0226 59.7405 86.9914 20100104 7.0 4.0 C/2007 VO53 (Spacewatch) MPC 63821 CK07W010 2008 06 24.8059 0.850607 0.999957 306.5755 334.5144 9.8888 20100104 9.5 4.0 C/2007 W1 (Boattini) MPC 63599 CK07Y020 2008 04 8.6249 4.212011 0.995616 257.7595 303.4693 98.4949 20100104 9.0 4.0 C/2007 Y2 (McNaught) MPC 62271 CK08A010 2008 09 29.0927 1.073510 1.000346 348.4764 277.8961 82.5438 20100104 6.5 4.0 C/2008 A1 (McNaught) MPC 65935 PK08C94L 2006 06 23.3353 5.425919 0.119666 81.4037 33.4527 8.3530 20100104 8.0 4.0 P/2008 CL94 (Lemmon) MPC 65645 CK08E010 2008 08 11.7607 4.828423 0.548696 269.9825 189.0071 35.0439 20100104 7.0 4.0 C/2008 E1 (Catalina) MPC 64113 CK08E030 2008 08 2.7266 5.532015 0.998057 218.1480 105.6817 105.0774 20100104 6.0 4.0 C/2008 E3 (Garradd) MPC 62879 CK08F75K 2010 09 29.1009 4.511274 1.002965 80.4009 218.2614 61.1718 20100104 5.0 4.0 C/2008 FK75 (Lemmon-Siding Spring) MPC 64767 CK08G010 2009 01 12.2417 3.989438 0.988586 63.7571 215.9177 72.8479 20100104 9.5 4.0 C/2008 G1 (Gibbs) MPC 63136 CK08J010 2008 07 13.3133 1.724820 0.989915 68.1475 273.4225 61.7635 20100104 10.0 4.0 C/2008 J1 (Boattini) MPC 65054 PK08J020 2008 03 20.3501 2.399428 0.310004 131.4777 98.1538 10.2519 20100104 9.0 4.0 P/2008 J2 (Beshore) MPC 63376 PK08J030 2009 03 10.8238 2.287364 0.412468 4.4463 9.8528 25.3990 20100104 12.0 4.0 P/2008 J3 (McNaught) MPC 66921 CK08N010 2009 09 25.9041 2.783608 0.997322 100.8185 357.4716 115.5209 20100104 9.0 4.0 C/2008 N1 (Holmes) MPC 65935 PK08O020 2009 04 21.8137 3.804004 0.152789 27.5013 325.8593 9.5184 20100104 9.0 4.0 P/2008 O2 (McNaught) MPC 66921 CK08P010 2009 07 22.9634 3.896266 1.001321 11.8694 357.6789 64.3137 20100104 7.0 4.0 C/2008 P1 (Garradd) MPC 64114 CK08Q010 2008 12 30.2172 2.959302 0.995385 104.4953 9.3043 118.6339 20100104 10.0 4.0 C/2008 Q1 (Maticic) MPC 65935 CK08Q030 2009 06 23.1055 1.798191 0.999820 340.8627 219.7372 140.7079 20100104 10.0 4.0 C/2008 Q3 (Garradd) MPC 66204 CK08S030 2011 06 5.0723 8.020098 1.000839 39.8102 54.9322 162.7015 20100104 4.0 4.0 C/2008 S3 (Boattini) MPC 66921 PK08T010 2008 02 26.8723 3.044674 0.281092 35.9885 291.7676 2.0829 20100104 11.0 4.0 P/2008 T1 (Boattini) MPC 67413 CK08T020 2009 06 13.2363 1.202372 1.000102 215.8756 309.6784 56.3035 20100104 6.0 4.0 C/2008 T2 (Cardinal) MPC 66921 PK08W96Z 2009 01 23.9637 1.646320 0.509932 337.6473 59.1013 6.9574 20100104 13.5 4.0 P/2008 WZ96 (LINEAR) MPC 66204 PK08Y030 2009 01 11.5904 4.433900 0.447374 238.2465 262.9165 38.8122 20100104 8.5 4.0 P/2008 Y3 (McNaught) MPC 65936 PK09B010 2009 02 6.2457 2.426550 0.637662 128.6031 297.4344 22.2268 20100104 13.0 4.0 P/2009 B1 (Boattini) MPC 65058 CK09B020 2009 03 7.3755 2.327340 0.944567 192.4929 18.8234 156.8750 20100104 12.5 4.0 C/2009 B2 (LINEAR) MPC 65647 CK09E010 2009 04 7.9216 0.599487 0.985045 48.9443 105.9645 127.4319 20100104 11.5 4.0 C/2009 E1 (Itagaki) MPC 66465 CK09F010 2009 06 25.8732 1.830584 0.982507 219.5797 357.9524 171.3757 20100104 15.0 4.0 C/2009 F1 (Larson) MPC 66204 CK09F020 2009 11 14.2727 5.875201 0.983243 336.3592 214.0564 59.3585 20100104 6.0 4.0 C/2009 F2 (McNaught) MPC 66204 CK09F040 2011 12 31.3157 5.455070 1.003682 260.3517 53.5674 79.3367 20100104 3.0 4.0 C/2009 F4 (McNaught) MPC 66204 CK09F050 2008 11 4.7970 2.245115 0.971709 297.3562 219.0683 84.9973 20100104 10.0 4.0 C/2009 F5 (McNaught) MPC 66204 CK09F060 2009 05 7.4311 1.274083 0.997512 129.7685 278.6763 85.7605 20100104 6.0 4.0 C/2009 F6 (Yi-SWAN) MPC 67147 CK09G010 2009 04 16.5059 1.128933 0.997745 175.4547 120.6388 108.3098 20100104 9.0 4.0 C/2009 G1 (STEREO) MPC 66466 CK09K020 2010 02 7.5039 3.246389 0.997389 147.6901 123.8086 66.8209 20100104 10.0 4.0 C/2009 K2 (Catalina) MPC 66703 CK09K030 2011 01 9.266 3.90156 1.00000 251.413 0.032 146.680 8.5 4.0 C/2009 K3 (Beshore) MPC 66205 CK09K040 2009 06 19.3669 1.549026 0.963334 127.4612 30.1201 34.8264 20100104 13.0 4.0 C/2009 K4 (Gibbs) MPC 66703 CK09K050 2010 04 30.0188 1.422558 1.000911 66.1637 257.8531 103.8817 20100104 7.5 4.0 C/2009 K5 (McNaught) MPC 66703 PK09L020 2009 05 21.7651 1.295796 0.621081 346.9670 259.2779 16.1568 20100104 15.0 4.0 P/2009 L2 (Yang-Gao) MPC 66704 CK09O020 2010 03 24.2210 0.693200 0.997221 133.4932 310.2212 107.8591 20100104 11.0 4.0 C/2009 O2 (Catalina) MPC 67147 PK09O030 2009 05 18.5747 2.449937 0.686636 154.5450 183.7644 16.2178 20100104 12.5 4.0 P/2009 O3 (Hill) MPC 67147 CK09O040 2010 01 1.2816 2.563791 1.000903 223.7321 172.9388 95.8292 20100104 10.0 4.0 C/2009 O4 (Hill) MPC 67147 CK09P010 2011 12 25.0276 1.554686 0.999882 90.7059 325.8894 106.3370 20100104 4.0 4.0 C/2009 P1 (Garradd) MPC 67147 CK09P020 2010 02 10.6248 6.543868 1.001636 76.0493 60.3723 163.4536 20100104 6.0 4.0 C/2009 P2 (Boattini) MPC 67147 PK09Q010 2009 07 3.8083 2.788798 0.496114 157.8435 174.0871 14.4382 20100104 11.5 4.0 P/2009 Q1 (Hill) MPC 67147 PK09Q040 2009 11 19.9300 1.320785 0.578943 320.0202 127.6676 10.9687 20100104 15.5 4.0 P/2009 Q4 (Boattini) MPC 67413 PK09Q050 2009 09 8.5509 2.918549 0.608871 209.2689 160.1409 40.9058 20100104 10.0 4.0 P/2009 Q5 (McNaught) MPC 67413 PK09Q31G 2009 10 10.3996 2.147831 0.398905 5.9191 346.2592 5.0554 20100104 14.0 4.0 P/2009 QG31 (La Sagra) MPC 67413 CK09R010 2010 07 2.6345 0.404913 1.000426 130.6999 322.6287 77.0248 20100104 8.0 4.0 C/2009 R1 (McNaught) MPC 67148 PK09S010 2009 08 4.2005 2.440262 0.377943 224.0113 157.9810 26.1107 13.0 4.0 P/2009 S1 (Gibbs) MPEC 2009-W94 PK09S020 2009 06 23.6355 2.203702 0.470272 230.3770 121.6126 28.4490 20100104 14.0 4.0 P/2009 S2 (McNaught) MPC 67148 CK09S030 2011 12 10.342 6.48092 1.00000 129.636 225.114 60.385 6.5 4.0 C/2009 S3 (Lemmon) MPC 67413 PK09SS0K 2009 05 25.2595 4.198841 0.120809 328.3811 36.4147 16.8016 11.0 4.0 P/2009 SK280 (Spacewatch-Hill) MPEC 2009-W95 CK09T010 2009 10 8.7613 6.222821 1.000000 282.5715 54.3637 89.9071 6.5 4.0 C/2009 T1 (McNaught) MPEC 2009-V55 PK09T020 2010 01 12.8416 1.754816 0.769091 215.4699 215.9853 28.1086 14.0 4.0 P/2009 T2 (La Sagra) MPEC 2009-W96 CK09T030 2010 01 12.0362 2.281244 1.000000 32.4423 60.0939 148.7439 12.5 4.0 C/2009 T3 (LINEAR) MPEC 2009-W97 CK09U010 2010 07 7.819 2.96357 1.00000 6.404 67.196 68.944 10.5 4.0 C/2009 U1 (Garradd) MPC 67414 CK09U030 2010 03 20.2581 1.414409 0.991361 77.7031 49.3226 51.2556 13.0 4.0 C/2009 U3 (Hill) MPEC 2009-W98 PK09U040 2009 09 9.0666 1.648719 0.674451 259.8826 55.7123 10.0911 14.0 4.0 P/2009 U4 (McNaught) MPEC 2009-W99 CK09U050 2010 07 14.924 6.04624 1.00000 25.997 121.179 25.551 7.0 4.0 C/2009 U5 (Grauer) MPEC 2009-W24 PK09U060 2009 08 8.6606 1.484203 0.561147 308.5827 112.4843 14.6376 13.0 4.0 P/2009 U6 (LINEAR) MPEC 2009-WA0 PK09W010 2009 09 10.190 2.93817 0.32723 49.150 55.223 14.523 11.5 4.0 P/2009 W1 (Hill) MPEC 2009-WA1 CK09W020 2010 03 23.937 6.95031 1.00000 118.066 199.323 164.512 7.0 4.0 C/2009 W2 (Boattini) MPEC 2009-WA3